• In Italy
  • List of Countries
  • For 7 days
  • Water Temperature
  • Satellite Maps
  • Weather Map
  • Weather Widgets
  • user-avatar
    Login

    Hourly Weather Centnerovka

    Today, 16 November, Friday

    Time Temperature Precipitation Wind Pressure Humidity
    00:00 +1°C° 0 mm 1 mps 761 mmHg 92%
    01:00 0°C° 0 mm 1 mps 761 mmHg 91%
    02:00 0°C° 0 mm 1 mps 761 mmHg 90%
    03:00 0°C° 0 mm 1 mps 761 mmHg 90%
    04:00 0°C° 0 mm 1 mps 762 mmHg 89%
    05:00 -1°C° 0 mm 1 mps 762 mmHg 89%
    06:00 -1°C° 0 mm 1 mps 762 mmHg 88%
    07:00 -1°C° 0 mm 1 mps 763 mmHg 87%
    08:00 -2°C° 0 mm 1 mps 763 mmHg 86%
    09:00 -1°C° 0 mm 1 mps 763 mmHg 82%
    10:00 0°C° 0 mm 1 mps 763 mmHg 78%
    11:00 +1°C° 0 mm 1 mps 764 mmHg 75%
    12:00 +1°C° 0 mm 1 mps 764 mmHg 75%
    13:00 +2°C° 0 mm 1 mps 764 mmHg 76%
    14:00 +2°C° 0 mm 1 mps 764 mmHg 77%
    15:00 +1°C° 0 mm 1 mps 764 mmHg 77%
    16:00 0°C° 0 mm 1 mps 764 mmHg 78%
    17:00 -1°C° 0 mm 1 mps 764 mmHg 78%
    18:00 -2°C° 0 mm 1 mps 764 mmHg 77%
    19:00 -2°C° 0 mm 1 mps 764 mmHg 75%
    20:00 -2°C° 0 mm 1 mps 764 mmHg 74%
    21:00 -2°C° 0 mm 1 mps 764 mmHg 72%
    22:00 -2°C° 0 mm 1 mps 764 mmHg 71%
    23:00 -2°C° 0 mm 1 mps 764 mmHg 69%

    Tomorrow, 17 November, Saturday

    Time Temperature Precipitation Wind Pressure Humidity
    00:00 -2°C° 0 mm 1 mps 764 mmHg 68%
    01:00 -3°C° 0 mm 0 mps 764 mmHg 66%
    02:00 -3°C° 0 mm 0 mps 764 mmHg 65%
    03:00 -2°C° 0 mm 1 mps 763 mmHg 65%
    04:00 -2°C° 0 mm 1 mps 763 mmHg 65%
    05:00 -3°C° 0 mm 1 mps 763 mmHg 65%
    06:00 -3°C° 0 mm 1 mps 762 mmHg 65%
    07:00 -3°C° 0 mm 1 mps 762 mmHg 66%
    08:00 -3°C° 0 mm 1 mps 762 mmHg 66%
    09:00 -4°C° 0 mm 2 mps 762 mmHg 65%
    10:00 -2°C° 0 mm 2 mps 761 mmHg 64%
    11:00 -1°C° 0 mm 2 mps 761 mmHg 64%
    12:00 -1°C° 0 mm 2 mps 760 mmHg 66%
    13:00 -1°C° 0 mm 2 mps 760 mmHg 68%
    14:00 -1°C° 0 mm 3 mps 759 mmHg 70%
    15:00 -1°C° 0 mm 3 mps 758 mmHg 73%
    16:00 -1°C° 0 mm 3 mps 757 mmHg 75%
    17:00 -1°C° 0 mm 3 mps 757 mmHg 77%
    18:00 -1°C° 0 mm 3 mps 756 mmHg 80%
    19:00 -2°C° 0 mm 3 mps 755 mmHg 82%
    20:00 -2°C° 0 mm 3 mps 755 mmHg 85%
    21:00 -2°C° 0 mm 4 mps 754 mmHg 87%
    22:00 -2°C° 0 mm 4 mps 753 mmHg 89%
    23:00 -2°C° 0 mm 4 mps 752 mmHg 91%

    Day after tomorrow, 18 November, Sunday

    Time Temperature Precipitation Wind Pressure Humidity
    00:00 -2°C° 0.1 mm 4 mps 751 mmHg 92%
    01:00 -2°C° 0.1 mm 4 mps 750 mmHg 93%
    02:00 -1°C° 0.1 mm 4 mps 749 mmHg 94%
    03:00 -1°C° 0.2 mm 4 mps 749 mmHg 95%
    04:00 -1°C° 0.2 mm 4 mps 748 mmHg 96%
    05:00 -1°C° 0.2 mm 4 mps 747 mmHg 96%
    06:00 -1°C° 0.2 mm 4 mps 746 mmHg 96%
    07:00 0°C° 0.2 mm 3 mps 746 mmHg 97%
    08:00 0°C° 0.2 mm 3 mps 746 mmHg 97%
    09:00 +1°C° 0.2 mm 3 mps 746 mmHg 97%
    10:00 +2°C° 0.2 mm 2 mps 745 mmHg 98%
    11:00 +2°C° 0.2 mm 2 mps 745 mmHg 98%
    12:00 +2°C° 0.1 mm 2 mps 745 mmHg 98%
    13:00 +2°C° 0.1 mm 2 mps 745 mmHg 98%
    14:00 +2°C° 0.1 mm 2 mps 745 mmHg 98%
    15:00 +2°C° 0.3 mm 2 mps 745 mmHg 97%
    16:00 +1°C° 0.3 mm 3 mps 745 mmHg 96%
    17:00 0°C° 0.3 mm 3 mps 745 mmHg 95%
    18:00 0°C° 0.2 mm 3 mps 745 mmHg 95%
    19:00 0°C° 0.2 mm 3 mps 745 mmHg 94%
    20:00 0°C° 0.2 mm 3 mps 746 mmHg 93%
    21:00 0°C° 0 mm 3 mps 746 mmHg 94%
    22:00 0°C° 0 mm 3 mps 746 mmHg 94%
    23:00 -1°C° 0 mm 3 mps 747 mmHg 94%

    19 November, Monday

    Time Temperature Precipitation Wind Pressure Humidity
    00:00 0°C° 0.1 mm 3 mps 747 mmHg 95%
    01:00 0°C° 0.1 mm 3 mps 747 mmHg 95%
    02:00 0°C° 0.1 mm 3 mps 748 mmHg 95%
    03:00 0°C° 0.1 mm 3 mps 748 mmHg 95%
    04:00 0°C° 0.1 mm 3 mps 748 mmHg 95%
    05:00 0°C° 0.1 mm 3 mps 748 mmHg 95%
    06:00 0°C° 0.1 mm 3 mps 748 mmHg 95%
    07:00 0°C° 0.1 mm 3 mps 749 mmHg 94%
    08:00 -1°C° 0.1 mm 3 mps 749 mmHg 94%
    09:00 0°C° 0.1 mm 3 mps 749 mmHg 94%
    10:00 0°C° 0.1 mm 3 mps 750 mmHg 94%
    11:00 0°C° 0.1 mm 3 mps 750 mmHg 93%
    12:00 +1°C° 0.1 mm 2 mps 751 mmHg 94%
    13:00 +1°C° 0.1 mm 2 mps 751 mmHg 94%
    14:00 +1°C° 0.1 mm 2 mps 751 mmHg 94%
    15:00 +1°C° 0.1 mm 2 mps 751 mmHg 94%
    16:00 0°C° 0.1 mm 3 mps 752 mmHg 94%
    17:00 -1°C° 0.1 mm 3 mps 752 mmHg 94%
    18:00 -1°C° 0 mm 3 mps 752 mmHg 94%
    19:00 -1°C° 0 mm 3 mps 753 mmHg 93%
    20:00 -2°C° 0 mm 3 mps 753 mmHg 93%
    21:00 -2°C° 0 mm 3 mps 753 mmHg 92%
    22:00 -2°C° 0 mm 3 mps 754 mmHg 92%
    23:00 -2°C° 0 mm 3 mps 754 mmHg 91%

    20 November, Tuesday

    Time Temperature Precipitation Wind Pressure Humidity
    00:00 -4°C° 0 mm 3 mps 754 mmHg 89%
    01:00 -5°C° 0 mm 3 mps 755 mmHg 88%
    02:00 -5°C° 0 mm 3 mps 755 mmHg 87%
    03:00 -6°C° 0 mm 3 mps 755 mmHg 85%
    04:00 -6°C° 0 mm 3 mps 755 mmHg 84%
    05:00 -6°C° 0 mm 3 mps 755 mmHg 83%
    06:00 -6°C° 0 mm 3 mps 755 mmHg 83%
    07:00 -6°C° 0 mm 3 mps 755 mmHg 83%
    08:00 -6°C° 0 mm 3 mps 755 mmHg 83%
    09:00 -5°C° 0 mm 3 mps 754 mmHg 82%
    10:00 -4°C° 0 mm 3 mps 754 mmHg 80%
    11:00 -2°C° 0 mm 3 mps 754 mmHg 78%
    12:00 -2°C° 0 mm 3 mps 754 mmHg 78%
    13:00 -1°C° 0 mm 3 mps 754 mmHg 77%
    14:00 -1°C° 0 mm 3 mps 754 mmHg 77%
    15:00 -2°C° 0 mm 3 mps 754 mmHg 78%
    16:00 -4°C° 0 mm 3 mps 753 mmHg 80%
    17:00 -4°C° 0 mm 3 mps 753 mmHg 81%
    18:00 -4°C° 0 mm 3 mps 753 mmHg 81%
    19:00 -5°C° 0 mm 3 mps 753 mmHg 80%
    20:00 -5°C° 0 mm 3 mps 753 mmHg 80%
    21:00 -5°C° 0 mm 3 mps 753 mmHg 81%
    22:00 -5°C° 0 mm 3 mps 752 mmHg 82%
    23:00 -5°C° 0 mm 3 mps 752 mmHg 83%

    21 November, Wednesday

    Time Temperature Precipitation Wind Pressure Humidity
    00:00 -5°C° 0 mm 3 mps 752 mmHg 84%
    01:00 -5°C° 0 mm 3 mps 752 mmHg 85%
    02:00 -5°C° 0 mm 3 mps 751 mmHg 86%
    03:00 -5°C° 0 mm 3 mps 751 mmHg 87%
    04:00 -5°C° 0 mm 4 mps 750 mmHg 87%
    05:00 -5°C° 0 mm 4 mps 750 mmHg 88%
    06:00 -5°C° 0 mm 4 mps 750 mmHg 88%
    07:00 -5°C° 0 mm 4 mps 750 mmHg 87%
    08:00 -5°C° 0 mm 4 mps 749 mmHg 87%
    09:00 -4°C° 0 mm 4 mps 749 mmHg 85%
    10:00 -5°C° 0 mm 5 mps 749 mmHg 82%
    11:00 -4°C° 0 mm 5 mps 748 mmHg 80%
    12:00 -4°C° 0 mm 5 mps 748 mmHg 79%
    13:00 -2°C° 0 mm 5 mps 747 mmHg 78%
    14:00 -2°C° 0 mm 5 mps 747 mmHg 77%
    15:00 -2°C° 0 mm 5 mps 747 mmHg 77%
    16:00 -4°C° 0 mm 5 mps 746 mmHg 77%
    17:00 -4°C° 0 mm 6 mps 746 mmHg 78%
    18:00 -4°C° 0.2 mm 6 mps 745 mmHg 78%
    19:00 -4°C° 0.2 mm 6 mps 745 mmHg 79%
    20:00 -4°C° 0.2 mm 6 mps 745 mmHg 80%
    21:00 -4°C° 0.5 mm 6 mps 745 mmHg 82%
    22:00 -4°C° 0.5 mm 6 mps 744 mmHg 83%
    23:00 -3°C° 0.5 mm 6 mps 744 mmHg 85%
    Show more